This demonstration page uses our WeatherBlox Daily Observations layout. Learn more.

Left ArrowRight Arrow

39.92423, -83.80882

Hourly Observations for March 8, 2017

Temp ( °F °C ) Dew Point ( °F °C ) Humidity (%) Winds ( mph kmh ) Pressure ( in mb ) Visibility ( mi km ) Precip ( " mm )
12:56 am 00:56 Clear 39 3.9 33 0.6 79 79 SW 9 15 30.12 1020 10 16.0934 0 0
1:56 am 01:56 Clear 39 3.9 32 0 76 76 SW 10 17 30.13 1020 10 16.0934 0 0
2:56 am 02:56 Clear 39 3.9 32 0 76 76 SSW 9 15 30.12 1020 10 16.0934 0 0
3:56 am 03:56 Clear 39 3.9 31 -0.6 73 73 SW 13 20 30.11 1020 10 16.0934 0 0
4:56 am 04:56 Mostly Clear 39 3.9 31 -0.6 73 73 SSW 12 19 30.11 1020 10 16.0934 0 0
5:56 am 05:56 Mostly Cloudy 39 3.9 30 -1.1 70 70 SSW 12 19 30.11 1020 10 16.0934 0 0
6:56 am 06:56 Clear 39 3.9 29 -1.7 67 67 SW 14 22 30.13 1020 10 16.0934 0 0
7:56 am 07:56 Sunny 41 5 29 -1.7 62 62 WSW 16 26 30.13 1020 10 16.0934 0 0
8:56 am 08:56 Sunny 44 6.7 31 -0.6 60 60 WSW 20 31 30.14 1021 10 16.0934 0 0
9:56 am 09:56 Sunny 47 8.3 32 0 56 56 WSW 21 33 30.15 1021 10 16.0934 0 0
10:56 am 10:56 Sunny 50 10 32 0 50 50 WSW 22 35 30.14 1021 10 16.0934 0 0
11:56 am 11:56 Sunny 53 11.7 29 -1.7 40 40 WSW 31 50 30.13 1020 10 16.0934 0 0
12:56 pm 12:56 Sunny 54 12.2 26 -3.3 34 34 W 26 43 30.13 1020 10 16.0934 0 0
1:56 pm 13:56 Sunny 55 12.8 26 -3.3 33 33 WSW 29 46 30.1 1019 10 16.0934 0 0
2:56 pm 14:56 Sunny 56 13.3 26 -3.3 32 32 W 31 50 30.11 1020 10 16.0934 0 0
3:56 pm 15:56 Sunny 56 13.3 27 -2.8 33 33 W 31 50 30.11 1020 10 16.0934 0 0
5:56 pm 17:56 Sunny 53 11.7 26 -3.3 35 35 W 21 33 30.13 1020 10 16.0934 0 0
6:56 pm 18:56 Clear 51 10.6 26 -3.3 38 38 W 17 28 30.15 1021 10 16.0934 0 0
7:56 pm 19:56 Clear 50 10 25 -3.9 38 38 W 17 28 30.16 1022 10 16.0934 0 0
8:56 pm 20:56 Clear 48 8.9 26 -3.3 42 42 WSW 12 19 30.18 1022 10 16.0934 0 0
9:56 pm 21:56 Clear 46 7.8 27 -2.8 47 47 WSW 12 19 30.19 1022 10 16.0934 0 0
10:56 pm 22:56 Clear 45 7.2 27 -2.8 49 49 WSW 12 19 30.19 1022 10 16.0934 0 0
11:56 pm 23:56 Clear 45 7.2 27 -2.8 49 49 WSW 13 20 30.18 1022 10 16.0934 0 0

Powered by AerisWeather